User: anonymous   Login
Location: Geroldsau
(48.7259°N, 8.2466°E)
Time: 20:31:31
(UTC+00:00)
Language:

deb NNS O-9 - Orbit

View from above orbital plane
View from above orbital plane
View from above satellite
View from above satellite

Ground track
Ground track

The orbit data is extracted from the following two-line orbital elements,

1 04555U 66041F   22024.45688164  .00000678  00000-0  21101-3 0  9997
2 04555  90.1621  38.5053 0050703 143.2164 217.2534 14.39415317192161
Epoch (UTC): 24 January 2022 10:57:54
Eccentricity: 0.0050703
inclination: 90.1621°
perigee height: 724 km
apogee height: 796 km
right ascension of ascending node: 38.5053°
argument of perigee: 143.2164°
revolutions per day: 14.39415317
mean anomaly at epoch: 217.2534°
orbit number at epoch: 19216

The dashed part of the orbit path shows where the satellite is in the earth's shadow,  

DLR